StationID,Date,MaxTemp,MinTemp,Precipitation,Snowfall,SnowDepth
"USC00506227","1950-09-21",53.96,42.08,0.00,0.00,0.00
"USC00506227","1950-09-22",55.04,42.08,0.00,0.00,0.00
"USC00506227","1950-09-23",51.98,33.98,3.00,0.00,0.00
"USC00506227","1950-09-24",55.94,24.08,0.00,0.00,0.00
"USC00506227","1950-09-25",55.94,33.08,124.00,0.00,0.00
"USC00506227","1950-09-26",48.92,41.00,15.00,0.00,0.00
"USC00506227","1950-09-27",53.96,33.98,0.00,0.00,0.00
"USC00506227","1950-09-28",60.98,33.98,0.00,0.00,0.00
"USC00506227","1950-09-29",59.00,42.08,0.00,0.00,0.00
"USC00506227","1950-09-30",51.08,35.96,0.00,0.00,0.00
"USC00506227","1950-10-01",50.00,42.98,0.00,0.00,0.00
"USC00506227","1950-10-02",59.00,35.06,0.00,0.00,0.00
"USC00506227","1950-10-03",55.94,44.96,0.00,0.00,0.00
"USC00506227","1950-10-04",51.98,37.04,0.00,0.00,0.00
"USC00506227","1950-10-05",55.94,21.02,0.00,0.00,0.00
"USC00506227","1950-10-06",51.98,30.92,0.00,0.00,0.00
"USC00506227","1950-10-07",55.94,26.06,0.00,0.00,0.00
"USC00506227","1950-10-08",51.98,19.94,0.00,0.00,0.00
"USC00506227","1950-10-09",48.92,33.08,0.00,0.00,0.00
"USC00506227","1950-10-10",42.98,33.08,18.00,0.00,0.00
"USC00506227","1950-10-11",37.94,32.00,0.00,0.00,0.00
"USC00506227","1950-10-12",44.96,30.02,0.00,0.00,0.00
"USC00506227","1950-10-13",42.98,17.96,0.00,0.00,0.00
"USC00506227","1950-10-14",42.08,15.98,0.00,0.00,0.00
"USC00506227","1950-10-15",42.98,24.08,0.00,0.00,0.00
"USC00506227","1950-10-16",44.06,26.96,0.00,0.00,0.00
"USC00506227","1950-10-17",39.92,23.00,0.00,0.00,0.00
"USC00506227","1950-10-18",32.00,17.06,0.00,0.00,0.00
"USC00506227","1950-10-19",44.06,30.02,84.00,0.00,0.00
"USC00506227","1950-10-20",44.96,21.92,3.00,0.00,0.00
"USC00506227","1950-10-21",39.02,21.92,0.00,0.00,0.00
"USC00506227","1950-10-22",35.06,15.08,0.00,0.00,0.00
"USC00506227","1950-10-23",44.96,32.00,8.00,0.00,0.00
"USC00506227","1950-10-24",42.98,24.08,0.00,0.00,0.00
"USC00506227","1950-10-25",33.98,12.92,0.00,0.00,0.00
"USC00506227","1950-10-26",35.96,19.04,0.00,0.00,0.00
"USC00506227","1950-10-27",33.98,15.98,0.00,0.00,0.00
"USC00506227","1950-10-28",30.02,6.08,0.00,0.00,0.00
"USC00506227","1950-10-29",26.06,-2.02,0.00,0.00,0.00
"USC00506227","1950-10-30",24.98,-5.98,0.00,0.00,0.00
"USC00506227","1950-10-31",23.00,-7.06,0.00,0.00,0.00
"USC00506227","1950-11-01",21.92,-7.96,0.00,0.00,0.00
"USC00506227","1950-11-02",19.94,-11.02,0.00,0.00,0.00
"USC00506227","1950-11-03",21.02,-11.92,0.00,0.00,0.00
"USC00506227","1950-11-04",19.04,-9.04,0.00,0.00,0.00
"USC00506227","1950-11-05",21.92,-11.92,0.00,0.00,0.00
"USC00506227","1950-11-06",28.94,-5.08,0.00,0.00,0.00
"USC00506227","1950-11-07",26.06,-2.02,0.00,0.00,0.00
"USC00506227","1950-11-08",30.02,3.92,0.00,0.00,0.00
"USC00506227","1950-11-09",33.98,17.06,0.00,0.00,0.00
"USC00506227","1950-11-10",32.00,6.98,0.00,0.00,0.00
"USC00506227","1950-11-11",39.02,15.08,20.00,0.00,0.00
"USC00506227","1950-11-12",33.08,6.98,0.00,0.00,0.00
"USC00506227","1950-11-13",37.94,5.00,0.00,0.00,0.00
"USC00506227","1950-11-14",23.00,-0.04,0.00,0.00,0.00
"USC00506227","1950-11-15",17.96,12.02,0.00,0.00,0.00
"USC00506227","1950-11-16",21.02,-2.02,0.00,0.00,0.00
"USC00506227","1950-11-17",15.98,-11.92,0.00,0.00,0.00
"USC00506227","1950-11-18",10.04,-14.08,0.00,0.00,0.00
"USC00506227","1950-11-19",8.96,-14.08,0.00,0.00,0.00
"USC00506227","1950-11-20",15.98,-9.94,0.00,0.00,0.00
"USC00506227","1950-11-21",10.04,-9.04,0.00,0.00,0.00
"USC00506227","1950-11-22",8.06,-9.04,0.00,0.00,0.00
"USC00506227","1950-11-23",17.06,-18.04,0.00,0.00,0.00
"USC00506227","1950-11-24",19.04,8.96,0.00,0.00,0.00
"USC00506227","1950-11-25",17.06,-18.04,0.00,0.00,0.00
"USC00506227","1950-11-26",19.04,-16.06,0.00,0.00,0.00
"USC00506227","1950-11-27",21.02,-7.96,0.00,0.00,0.00
"USC00506227","1950-11-28",21.02,-9.04,0.00,0.00,0.00
"USC00506227","1950-11-29",21.92,1.94,0.00,0.00,0.00
"USC00506227","1950-11-30",19.04,-0.94,0.00,0.00,0.00
"USC00506227","1950-12-01",24.98,-2.02,0.00,0.00,0.00
"USC00506227","1950-12-02",8.96,-11.02,0.00,0.00,0.00
"USC00506227","1950-12-03",17.06,8.96,51.00,56.00,51.00
"USC00506227","1950-12-04",17.06,15.08,76.00,86.00,127.00
"USC00506227","1950-12-05",17.06,-9.04,81.00,89.00,203.00
"USC00506227","1950-12-06",1.04,-23.08,0.00,0.00,203.00
"USC00506227","1950-12-07",1.94,-32.98,10.00,15.00,203.00
"USC00506227","1950-12-08",3.02,-27.04,3.00,3.00,203.00
"USC00506227","1950-12-09",12.02,-22.00,0.00,0.00,203.00
"USC00506227","1950-12-10",19.94,12.02,8.00,8.00,178.00
"USC00506227","1950-12-11",21.92,19.04,33.00,38.00,203.00
"USC00506227","1950-12-12",30.02,21.02,109.00,132.00,305.00
"USC00506227","1950-12-13",28.94,8.96,0.00,0.00,279.00
"USC00506227","1950-12-14",19.94,10.04,0.00,0.00,254.00
"USC00506227","1950-12-15",15.98,-18.04,0.00,0.00,254.00
"USC00506227","1950-12-16",5.00,-23.08,0.00,0.00,254.00
"USC00506227","1950-12-17",6.98,-9.04,0.00,0.00,229.00
"USC00506227","1950-12-18",15.08,-9.94,0.00,0.00,229.00
"USC00506227","1950-12-19",24.98,3.02,0.00,0.00,203.00
"USC00506227","1950-12-20",6.08,-16.96,0.00,0.00,203.00
"USC00506227","1950-12-21",15.98,-18.04,23.00,71.00,279.00
"USC00506227","1950-12-22",17.96,-5.98,3.00,10.00,279.00
"USC00506227","1950-12-23",21.02,-7.96,0.00,0.00,279.00
"USC00506227","1950-12-24",35.96,-2.02,0.00,0.00,254.00
"USC00506227","1950-12-25",39.92,24.08,0.00,0.00,229.00
"USC00506227","1950-12-26",35.06,24.08,0.00,0.00,229.00
"USC00506227","1950-12-27",28.04,1.94,0.00,0.00,229.00
"USC00506227","1950-12-28",26.06,8.96,0.00,0.00,229.00
"USC00506227","1950-12-29",21.02,10.94,41.00,53.00,279.00
"USC00506227","1950-12-30",23.00,-4.00,3.00,8.00,279.00
"USC00506227","1950-12-31",35.96,14.00,43.00,51.00,330.00
"USC00506227","1951-01-01",35.06,1.04,0.00,0.00,305.00
"USC00506227","1951-01-02",14.00,-9.94,0.00,0.00,305.00
"USC00506227","1951-01-03",21.02,10.94,20.00,28.00,330.00
"USC00506227","1951-01-04",21.92,15.08,0.00,0.00,330.00
"USC00506227","1951-01-05",26.06,17.96,0.00,0.00,305.00
"USC00506227","1951-01-06",35.06,21.92,89.00,119.00,381.00
"USC00506227","1951-01-07",30.92,8.96,46.00,43.00,406.00
"USC00506227","1951-01-08",37.04,28.94,28.00,30.00,406.00
"USC00506227","1951-01-09",30.92,-2.92,0.00,0.00,406.00
"USC00506227","1951-01-10",19.04,-7.96,8.00,18.00,406.00
"USC00506227","1951-01-11",10.94,-14.98,0.00,0.00,381.00
"USC00506227","1951-01-12",6.08,-11.02,10.00,13.00,406.00
"USC00506227","1951-01-13",,-18.94,8.00,13.00,406.00
"USC00506227","1951-01-14",3.92,-40.00,0.00,0.00,381.00
"USC00506227","1951-01-15",-16.06,-38.02,0.00,0.00,381.00
"USC00506227","1951-01-16",-9.94,-38.02,0.00,0.00,381.00
"USC00506227","1951-01-17",-14.98,-45.04,0.00,0.00,381.00
"USC00506227","1951-01-18",-16.06,-47.92,0.00,0.00,381.00
"USC00506227","1951-01-19",-14.98,-47.02,0.00,0.00,381.00
"USC00506227","1951-01-20",5.00,-45.04,0.00,0.00,381.00
"USC00506227","1951-01-21",17.96,-32.08,0.00,0.00,381.00
"USC00506227","1951-01-22",15.08,-32.08,0.00,0.00,381.00
"USC00506227","1951-01-23",12.92,-18.04,0.00,0.00,381.00
"USC00506227","1951-01-24",10.04,-27.04,0.00,0.00,381.00
"USC00506227","1951-01-25",6.08,-29.92,0.00,0.00,381.00
"USC00506227","1951-01-26",15.98,-4.00,0.00,0.00,381.00
"USC00506227","1951-01-27",17.96,3.92,0.00,0.00,381.00
"USC00506227","1951-01-28",28.94,-0.04,0.00,0.00,356.00
"USC00506227","1951-01-29",30.02,-2.92,0.00,0.00,356.00
"USC00506227","1951-01-30",30.02,19.94,0.00,0.00,356.00
"USC00506227","1951-01-31",28.04,24.08,15.00,28.00,381.00
"USC00506227","1951-02-01",28.94,24.08,0.00,3.00,381.00
"USC00506227","1951-02-02",28.04,-2.02,0.00,0.00,381.00
"USC00506227","1951-02-03",15.08,-20.02,0.00,0.00,381.00
"USC00506227","1951-02-04",12.02,-23.98,0.00,0.00,381.00
"USC00506227","1951-02-05",6.08,-32.08,0.00,0.00,381.00
"USC00506227","1951-02-06",12.02,-22.00,0.00,0.00,381.00
"USC00506227","1951-02-07",17.06,-5.98,0.00,0.00,381.00
"USC00506227","1951-02-08",17.96,-31.00,0.00,0.00,381.00
"USC00506227","1951-02-09",6.08,26.06,0.00,0.00,381.00
"USC00506227","1951-02-10",17.96,-14.98,0.00,0.00,381.00
"USC00506227","1951-02-11",23.00,-9.04,0.00,0.00,356.00
"USC00506227","1951-02-12",35.96,3.92,0.00,0.00,356.00
"USC00506227","1951-02-13",35.06,24.08,0.00,0.00,356.00
"USC00506227","1951-02-14",24.98,-2.02,0.00,0.00,356.00
"USC00506227","1951-02-15",37.04,19.94,10.00,18.00,381.00
"USC00506227","1951-02-16",37.94,21.92,0.00,0.00,381.00
"USC00506227","1951-02-17",35.06,12.92,0.00,0.00,381.00
"USC00506227","1951-02-18",28.04,24.08,69.00,86.00,457.00
"USC00506227","1951-02-19",28.94,1.94,5.00,8.00,457.00
"USC00506227","1951-02-20",23.00,-11.02,33.00,48.00,508.00
"USC00506227","1951-02-21",37.04,19.94,38.00,18.00,508.00
"USC00506227","1951-02-22",42.08,28.04,0.00,0.00,457.00
"USC00506227","1951-02-23",35.06,15.08,0.00,0.00,432.00
"USC00506227","1951-02-24",21.92,-18.04,0.00,0.00,432.00
"USC00506227","1951-02-25",12.92,-23.08,0.00,0.00,432.00
"USC00506227","1951-02-26",21.92,1.94,53.00,102.00,508.00
"USC00506227","1951-02-27",26.96,-22.00,0.00,0.00,508.00
"USC00506227","1951-02-28",35.06,6.98,3.00,8.00,483.00
"USC00506227","1951-03-01",21.92,12.02,0.00,0.00,483.00
"USC00506227","1951-03-02",21.92,-7.96,0.00,0.00,483.00
"USC00506227","1951-03-03",19.04,-27.94,0.00,0.00,483.00
"USC00506227","1951-03-04",10.94,-25.06,0.00,0.00,483.00
"USC00506227","1951-03-05",10.04,-34.96,0.00,0.00,483.00
"USC00506227","1951-03-06",19.94,-34.96,0.00,0.00,483.00
"USC00506227","1951-03-07",26.06,-31.00,0.00,0.00,483.00
"USC00506227","1951-03-08",23.00,-27.94,0.00,0.00,483.00
"USC00506227","1951-03-09",19.94,-20.92,0.00,0.00,483.00
"USC00506227","1951-03-10",24.08,-29.92,0.00,0.00,483.00
"USC00506227","1951-03-11",23.00,5.00,0.00,0.00,483.00
"USC00506227","1951-03-12",24.08,-29.92,0.00,0.00,483.00
"USC00506227","1951-03-13",19.04,-11.02,0.00,0.00,483.00
"USC00506227","1951-03-14",23.00,-27.94,0.00,0.00,483.00
"USC00506227","1951-03-15",26.06,-27.94,0.00,0.00,457.00
"USC00506227","1951-03-16",28.94,-7.06,0.00,0.00,457.00
"USC00506227","1951-03-17",24.98,-9.94,0.00,0.00,457.00
"USC00506227","1951-03-18",44.96,19.94,36.00,38.00,457.00
"USC00506227","1951-03-19",44.06,17.06,3.00,5.00,432.00
"USC00506227","1951-03-20",19.94,3.02,5.00,8.00,432.00
"USC00506227","1951-03-21",24.08,-20.02,0.00,0.00,432.00
"USC00506227","1951-03-22",24.98,-23.08,0.00,0.00,432.00
"USC00506227","1951-03-23",28.94,-9.04,0.00,0.00,432.00
"USC00506227","1951-03-24",30.02,12.92,0.00,0.00,432.00
"USC00506227","1951-03-25",37.94,14.00,0.00,0.00,406.00
"USC00506227","1951-03-26",37.04,26.06,5.00,8.00,406.00
"USC00506227","1951-03-27",32.00,24.08,0.00,0.00,406.00
"USC00506227","1951-03-28",44.06,21.92,0.00,0.00,406.00
"USC00506227","1951-03-29",37.04,15.98,0.00,0.00,381.00
"USC00506227","1951-03-30",41.00,10.04,0.00,0.00,381.00
"USC00506227","1951-03-31",44.06,30.92,0.00,0.00,356.00
"USC00506227","1951-04-01",44.96,33.98,0.00,0.00,356.00
"USC00506227","1951-04-02",37.94,30.02,38.00,13.00,356.00
"USC00506227","1951-04-03",42.08,17.96,0.00,0.00,330.00
"USC00506227","1951-04-04",44.06,30.92,0.00,0.00,305.00
"USC00506227","1951-04-05",42.08,24.98,38.00,0.00,279.00
"USC00506227","1951-04-06",39.92,33.08,0.00,0.00,279.00
"USC00506227","1951-04-07",39.92,30.92,0.00,0.00,254.00
"USC00506227","1951-04-08",46.94,12.92,0.00,0.00,203.00
"USC00506227","1951-04-09",41.00,26.96,5.00,0.00,178.00
"USC00506227","1951-04-10",41.00,28.94,8.00,0.00,152.00
"USC00506227","1951-04-11",39.02,15.08,0.00,0.00,127.00
"USC00506227","1951-04-12",42.08,17.96,0.00,0.00,102.00
"USC00506227","1951-04-13",41.00,33.08,0.00,0.00,76.00
"USC00506227","1951-04-14",42.98,37.94,0.00,0.00,51.00
"USC00506227","1951-04-15",48.02,33.98,0.00,0.00,25.00
"USC00506227","1951-04-16",51.08,37.04,13.00,0.00,0.00
"USC00506227","1951-04-17",44.96,33.98,23.00,0.00,0.00
"USC00506227","1951-04-18",51.98,28.94,0.00,0.00,0.00
"USC00506227","1951-04-19",55.04,23.00,0.00,0.00,0.00
"USC00506227","1951-04-20",55.04,24.08,0.00,0.00,0.00
"USC00506227","1951-04-21",51.98,21.92,0.00,0.00,0.00
"USC00506227","1951-04-22",39.02,24.98,51.00,0.00,0.00
"USC00506227","1951-04-23",41.00,32.00,107.00,0.00,0.00
"USC00506227","1951-04-24",46.94,32.00,5.00,0.00,0.00
"USC00506227","1951-04-25",50.00,32.00,0.00,0.00,0.00
"USC00506227","1951-04-26",46.94,37.04,0.00,0.00,0.00
"USC00506227","1951-04-27",48.02,33.08,0.00,0.00,0.00
"USC00506227","1951-04-28",48.92,33.98,0.00,0.00,0.00
"USC00506227","1951-04-29",50.00,19.94,0.00,0.00,0.00
"USC00506227","1951-04-30",44.06,24.08,0.00,0.00,0.00
"USC00506227","1951-05-01",53.06,21.02,0.00,0.00,0.00
"USC00506227","1951-05-02",51.08,19.94,0.00,0.00,0.00
"USC00506227","1951-05-03",53.96,30.92,0.00,0.00,0.00
"USC00506227","1951-05-04",53.06,30.92,0.00,0.00,0.00
"USC00506227","1951-05-05",55.94,21.02,0.00,0.00,0.00
"USC00506227","1951-05-06",64.94,21.02,0.00,0.00,0.00
"USC00506227","1951-05-07",59.00,37.04,0.00,0.00,0.00
"USC00506227","1951-05-08",59.00,37.94,0.00,0.00,0.00
"USC00506227","1951-05-09",55.94,35.06,0.00,0.00,0.00
"USC00506227","1951-05-10",55.04,37.94,0.00,0.00,0.00
"USC00506227","1951-05-11",57.92,35.06,0.00,0.00,0.00
"USC00506227","1951-05-12",62.96,26.06,0.00,0.00,0.00
"USC00506227","1951-05-13",55.04,28.04,0.00,0.00,0.00
"USC00506227","1951-05-14",53.96,35.96,20.00,0.00,0.00
"USC00506227","1951-05-15",55.04,32.00,0.00,0.00,0.00
"USC00506227","1951-05-16",55.04,33.08,0.00,0.00,0.00
"USC00506227","1951-05-17",55.04,33.98,0.00,0.00,0.00
"USC00506227","1951-05-18",53.06,39.92,76.00,0.00,0.00
"USC00506227","1951-05-19",51.08,28.94,0.00,0.00,0.00
"USC00506227","1951-05-20",51.98,37.04,0.00,0.00,0.00
"USC00506227","1951-05-21",50.00,35.96,0.00,0.00,0.00
"USC00506227","1951-05-22",53.06,37.04,0.00,0.00,0.00
"USC00506227","1951-05-23",53.06,24.98,0.00,0.00,0.00
"USC00506227","1951-05-24",57.92,21.02,0.00,0.00,0.00
"USC00506227","1951-05-25",57.02,24.98,0.00,0.00,0.00
"USC00506227","1951-05-26",59.00,23.00,0.00,0.00,0.00
"USC00506227","1951-05-27",55.04,41.00,3.00,0.00,0.00
"USC00506227","1951-05-28",64.94,19.04,0.00,0.00,0.00
"USC00506227","1951-05-29",55.94,28.94,0.00,0.00,0.00
"USC00506227","1951-05-30",62.96,44.06,0.00,0.00,0.00
"USC00506227","1951-05-31",64.04,35.96,0.00,0.00,0.00
"USC00506227","1951-06-01",60.08,46.04,5.00,0.00,0.00
"USC00506227","1951-06-02",57.92,42.08,0.00,0.00,0.00
"USC00506227","1951-06-03",55.04,44.06,30.00,0.00,0.00
"USC00506227","1951-06-04",57.02,44.96,28.00,0.00,0.00
"USC00506227","1951-06-05",66.92,46.94,3.00,0.00,0.00
"USC00506227","1951-06-06",66.92,46.04,0.00,0.00,0.00
"USC00506227","1951-06-07",64.94,37.94,0.00,0.00,0.00
"USC00506227","1951-06-08",55.04,39.02,61.00,0.00,0.00
"USC00506227","1951-06-09",60.08,41.00,0.00,0.00,0.00
"USC00506227","1951-06-10",55.94,35.96,3.00,0.00,0.00
"USC00506227","1951-06-11",60.98,37.94,18.00,0.00,0.00
"USC00506227","1951-06-12",60.08,32.00,0.00,0.00,0.00
"USC00506227","1951-06-13",59.00,35.06,0.00,0.00,0.00
"USC00506227","1951-06-14",57.92,33.08,5.00,0.00,0.00
"USC00506227","1951-06-15",59.00,30.02,0.00,0.00,0.00
"USC00506227","1951-06-16",57.02,44.06,0.00,0.00,0.00
"USC00506227","1951-06-17",55.04,44.96,8.00,0.00,0.00
"USC00506227","1951-06-18",57.92,30.02,0.00,0.00,0.00
"USC00506227","1951-06-19",51.98,42.08,51.00,0.00,0.00
"USC00506227","1951-06-20",60.08,26.96,23.00,0.00,0.00
"USC00506227","1951-06-21",50.00,42.98,203.00,0.00,0.00
"USC00506227","1951-06-22",64.94,39.92,13.00,0.00,0.00
"USC00506227","1951-06-23",62.06,48.02,3.00,0.00,0.00
"USC00506227","1951-06-24",66.92,46.94,56.00,0.00,0.00
"USC00506227","1951-06-25",75.92,33.08,0.00,0.00,0.00
"USC00506227","1951-06-26",62.06,33.98,0.00,0.00,0.00
"USC00506227","1951-06-27",68.00,50.00,0.00,0.00,0.00
"USC00506227","1951-06-28",64.94,46.04,28.00,0.00,0.00
"USC00506227","1951-06-29",68.00,48.02,0.00,0.00,0.00
"USC00506227","1951-06-30",62.96,46.04,0.00,0.00,0.00
"USC00506227","1951-07-01",64.04,46.94,13.00,0.00,0.00
"USC00506227","1951-07-02",73.04,44.06,18.00,0.00,0.00
"USC00506227","1951-07-03",78.08,37.04,0.00,0.00,0.00
"USC00506227","1951-07-04",80.06,48.92,0.00,0.00,0.00
"USC00506227","1951-07-05",75.02,60.98,0.00,0.00,0.00
"USC00506227","1951-07-06",73.94,57.92,0.00,0.00,0.00
"USC00506227","1951-07-07",78.98,35.96,0.00,0.00,0.00
"USC00506227","1951-07-08",71.06,37.94,0.00,0.00,0.00
"USC00506227","1951-07-09",80.06,41.00,0.00,0.00,0.00
"USC00506227","1951-07-10",82.94,44.06,0.00,0.00,0.00
"USC00506227","1951-07-11",78.98,44.96,0.00,0.00,0.00
"USC00506227","1951-07-12",78.98,42.08,0.00,0.00,0.00
"USC00506227","1951-07-13",66.02,46.04,0.00,0.00,0.00
"USC00506227","1951-07-14",68.00,48.02,0.00,0.00,0.00
"USC00506227","1951-07-15",77.00,39.92,0.00,0.00,0.00
"USC00506227","1951-07-16",69.98,42.08,53.00,0.00,0.00
"USC00506227","1951-07-17",62.96,51.08,165.00,0.00,0.00
"USC00506227","1951-07-18",69.98,48.92,0.00,0.00,0.00
"USC00506227","1951-07-19",64.94,51.08,0.00,0.00,0.00
"USC00506227","1951-07-20",69.98,39.92,0.00,0.00,0.00
"USC00506227","1951-07-21",62.96,44.96,5.00,0.00,0.00
"USC00506227","1951-07-22",66.02,35.06,0.00,0.00,0.00
"USC00506227","1951-07-23",62.96,39.92,0.00,0.00,0.00
"USC00506227","1951-07-24",66.02,39.92,0.00,0.00,0.00
"USC00506227","1951-07-25",69.98,37.94,0.00,0.00,0.00
"USC00506227","1951-07-26",69.08,37.94,0.00,0.00,0.00
"USC00506227","1951-07-27",62.06,42.98,5.00,0.00,0.00
"USC00506227","1951-07-28",60.98,48.02,114.00,0.00,0.00
"USC00506227","1951-07-29",60.08,42.08,94.00,0.00,0.00
"USC00506227","1951-07-30",64.04,39.92,30.00,0.00,0.00
"USC00506227","1951-07-31",64.04,35.06,0.00,0.00,0.00
"USC00506227","1951-08-01",62.06,46.04,0.00,0.00,0.00
"USC00506227","1951-08-02",68.00,46.94,0.00,0.00,0.00
"USC00506227","1951-08-03",62.06,48.92,0.00,0.00,0.00
"USC00506227","1951-08-04",57.92,48.92,30.00,0.00,0.00
"USC00506227","1951-08-05",64.94,48.92,36.00,0.00,0.00
"USC00506227","1951-08-06",66.92,44.96,30.00,0.00,0.00
"USC00506227","1951-08-07",57.92,51.98,46.00,0.00,0.00
"USC00506227","1951-08-08",68.00,42.98,0.00,0.00,0.00
"USC00506227","1951-08-09",73.04,41.00,0.00,0.00,0.00
"USC00506227","1951-08-10",68.00,35.06,0.00,0.00,0.00
"USC00506227","1951-08-11",69.08,48.02,0.00,0.00,0.00
"USC00506227","1951-08-12",71.06,48.92,8.00,0.00,0.00
"USC00506227","1951-08-13",64.94,55.94,18.00,0.00,0.00
"USC00506227","1951-08-14",69.08,55.04,5.00,0.00,0.00
"USC00506227","1951-08-15",62.06,39.02,15.00,0.00,0.00
"USC00506227","1951-08-16",66.92,42.98,3.00,0.00,0.00
"USC00506227","1951-08-17",64.94,48.02,48.00,0.00,0.00
"USC00506227","1951-08-18",64.94,48.02,18.00,0.00,0.00
"USC00506227","1951-08-19",59.00,42.98,15.00,0.00,0.00
"USC00506227","1951-08-20",64.94,33.08,0.00,0.00,0.00
"USC00506227","1951-08-21",57.02,44.06,10.00,0.00,0.00
"USC00506227","1951-08-22",55.94,51.08,38.00,0.00,0.00
"USC00506227","1951-08-23",64.94,46.04,0.00,0.00,0.00
"USC00506227","1951-08-24",57.92,35.96,30.00,0.00,0.00
"USC00506227","1951-08-25",53.06,48.02,86.00,0.00,0.00
"USC00506227","1951-08-26",57.02,50.00,79.00,0.00,0.00
"USC00506227","1951-08-27",77.00,53.06,15.00,0.00,0.00
"USC00506227","1951-08-28",66.92,51.08,0.00,0.00,0.00
"USC00506227","1951-08-29",64.94,53.06,0.00,0.00,0.00
"USC00506227","1951-08-30",64.94,46.94,0.00,0.00,0.00
"USC00506227","1951-08-31",62.06,41.00,20.00,0.00,0.00
"USC00506227","1951-09-01",60.08,48.02,81.00,0.00,0.00
"USC00506227","1951-09-02",62.06,51.08,20.00,0.00,0.00
"USC00506227","1951-09-03",59.00,51.08,99.00,0.00,0.00
"USC00506227","1951-09-04",53.96,46.04,114.00,0.00,0.00
"USC00506227","1951-09-05",55.04,46.04,30.00,0.00,0.00
"USC00506227","1951-09-06",59.00,44.96,30.00,0.00,0.00
"USC00506227","1951-09-07",57.92,44.06,0.00,0.00,0.00
"USC00506227","1951-09-08",55.94,46.04,338.00,0.00,0.00
"USC00506227","1951-09-09",57.92,39.02,10.00,0.00,0.00
"USC00506227","1951-09-10",55.94,28.94,8.00,0.00,0.00
"USC00506227","1951-09-11",55.04,42.98,81.00,0.00,0.00
"USC00506227","1951-09-12",55.94,41.00,0.00,0.00,0.00
"USC00506227","1951-09-13",51.98,42.98,15.00,0.00,0.00
"USC00506227","1951-09-14",57.02,33.08,0.00,0.00,0.00
"USC00506227","1951-09-15",51.98,28.04,0.00,0.00,0.00
"USC00506227","1951-09-16",55.04,44.06,79.00,0.00,0.00
"USC00506227","1951-09-17",60.98,46.04,5.00,0.00,0.00
"USC00506227","1951-09-18",55.94,46.94,61.00,0.00,0.00
"USC00506227","1951-09-19",50.00,33.98,79.00,0.00,0.00
"USC00506227","1951-09-20",62.96,46.94,5.00,0.00,0.00
"USC00506227","1951-09-21",53.96,41.00,58.00,0.00,0.00
"USC00506227","1951-09-22",60.98,48.02,86.00,0.00,0.00
"USC00506227","1951-09-23",62.96,32.00,0.00,0.00,0.00
"USC00506227","1951-09-24",59.00,28.04,0.00,0.00,0.00
"USC00506227","1951-09-25",59.00,24.08,0.00,0.00,0.00
"USC00506227","1951-09-26",53.06,33.98,0.00,0.00,0.00
"USC00506227","1951-09-27",53.96,37.04,0.00,0.00,0.00
"USC00506227","1951-09-28",51.98,28.04,0.00,0.00,0.00
"USC00506227","1951-09-29",51.08,28.04,0.00,0.00,0.00
"USC00506227","1951-09-30",53.06,26.06,0.00,0.00,0.00
"USC00506227","1951-10-01",53.06,32.00,0.00,0.00,0.00
"USC00506227","1951-10-02",50.00,26.96,0.00,0.00,0.00
"USC00506227","1951-10-03",44.96,35.06,13.00,0.00,0.00
"USC00506227","1951-10-04",37.94,32.00,130.00,0.00,0.00
"USC00506227","1951-10-05",46.94,30.92,0.00,0.00,0.00
"USC00506227","1951-10-06",39.92,28.94,13.00,0.00,0.00
"USC00506227","1951-10-07",37.04,21.92,10.00,20.00,25.00
"USC00506227","1951-10-08",37.04,12.02,0.00,0.00,0.00
"USC00506227","1951-10-09",33.98,14.00,0.00,0.00,0.00
"USC00506227","1951-10-10",39.92,26.06,15.00,20.00,25.00
"USC00506227","1951-10-11",44.96,17.06,0.00,0.00,0.00
"USC00506227","1951-10-12",35.96,28.04,0.00,0.00,0.00
"USC00506227","1951-10-13",41.00,12.92,0.00,0.00,0.00
"USC00506227","1951-10-14",39.92,8.96,0.00,0.00,0.00
"USC00506227","1951-10-15",42.98,6.98,0.00,0.00,0.00
"USC00506227","1951-10-16",42.08,6.98,0.00,0.00,0.00
"USC00506227","1951-10-17",42.08,6.08,0.00,0.00,0.00
"USC00506227","1951-10-18",39.92,3.02,0.00,0.00,0.00
"USC00506227","1951-10-19",39.02,8.06,0.00,0.00,0.00
"USC00506227","1951-10-20",35.06,5.00,0.00,0.00,0.00
"USC00506227","1951-10-21",37.94,23.00,0.00,0.00,0.00
"USC00506227","1951-10-22",39.92,8.96,0.00,0.00,0.00
"USC00506227","1951-10-23",35.96,3.02,0.00,0.00,0.00
"USC00506227","1951-10-24",42.98,26.96,0.00,0.00,0.00
"USC00506227","1951-10-25",51.08,28.94,0.00,0.00,0.00
"USC00506227","1951-10-26",44.06,30.02,0.00,0.00,0.00
"USC00506227","1951-10-27",42.08,28.04,18.00,0.00,0.00
"USC00506227","1951-10-28",39.92,24.08,0.00,0.00,0.00
"USC00506227","1951-10-29",33.98,28.04,0.00,0.00,0.00
"USC00506227","1951-10-30",35.96,28.04,0.00,0.00,0.00
"USC00506227","1951-10-31",42.98,35.06,5.00,0.00,0.00
"USC00506227","1951-11-01",50.00,37.04,56.00,0.00,0.00
"USC00506227","1951-11-02",48.92,28.94,5.00,0.00,0.00
"USC00506227","1951-11-03",37.94,24.08,0.00,0.00,0.00
"USC00506227","1951-11-04",33.98,17.96,48.00,0.00,0.00
"USC00506227","1951-11-05",39.02,32.00,0.00,0.00,0.00
"USC00506227","1951-11-06",39.92,28.04,0.00,0.00,0.00
"USC00506227","1951-11-07",42.08,30.92,0.00,0.00,0.00
"USC00506227","1951-11-08",35.96,30.92,0.00,0.00,0.00
"USC00506227","1951-11-09",35.06,19.04,0.00,0.00,0.00
"USC00506227","1951-11-10",35.96,21.92,0.00,0.00,0.00
"USC00506227","1951-11-11",33.08,26.96,0.00,0.00,0.00
"USC00506227","1951-11-12",33.08,15.98,0.00,0.00,0.00
"USC00506227","1951-11-13",28.04,-0.04,0.00,0.00,0.00
"USC00506227","1951-11-14",23.00,3.02,0.00,0.00,0.00
"USC00506227","1951-11-15",17.96,-2.92,0.00,0.00,0.00
"USC00506227","1951-11-16",17.96,-2.02,0.00,0.00,0.00
"USC00506227","1951-11-17",15.98,-7.96,0.00,0.00,0.00
"USC00506227","1951-11-18",19.94,-7.06,0.00,0.00,0.00
"USC00506227","1951-11-19",19.94,-4.00,0.00,0.00,0.00
"USC00506227","1951-11-20",30.92,19.94,15.00,0.00,0.00
"USC00506227","1951-11-21",33.08,30.92,56.00,0.00,0.00